| time (UTC) | temp F | wind direction | speed MPH | gust MPH | rain 1hr in | rain 24hr in | rain mn in | humidity % | barometer mb |
| 20260906055801 | 59 | 289 | 0.0 | 0.0 | 0.00 | 0.05 | 0.00 | 1 | 1035.5 |
| 20260906055300 | 59 | 289 | 0.0 | 0.0 | 0.00 | 0.05 | 0.00 | 1 | 1035.4 |
| 20260906054800 | 58 | 144 | 0.0 | 0.0 | 0.00 | 0.05 | 0.00 | 1 | 1035.4 |
| 20260906054301 | 58 | 144 | 0.0 | 0.0 | 0.00 | 0.05 | 0.00 | 1 | 1035.5 |
| 20260906053801 | 57 | 144 | 0.0 | 0.0 | 0.00 | 0.05 | 0.00 | 1 | 1035.4 |
| 20260906053300 | 57 | 144 | 0.0 | 1.0 | 0.00 | 0.05 | 0.00 | 1 | 1035.4 |
| 20260906052801 | 56 | 144 | 0.0 | 2.0 | 0.00 | 0.05 | 0.00 | 1 | 1035.4 |
| 20260906052305 | 56 | 144 | 1.0 | 2.0 | 0.00 | 0.05 | 0.00 | 1 | 1035.4 |
| 20260906051802 | 56 | 278 | 0.0 | 1.0 | 0.00 | 0.05 | 0.00 | 1 | 1035.2 |
| 20260906051301 | 56 | 271 | 0.0 | 1.0 | 0.00 | 0.05 | 0.00 | 1 | 1035.4 |
| 20260906050801 | 56 | 227 | 0.0 | 0.0 | 0.00 | 0.05 | 0.00 | 1 | 1035.2 |
| 20260906050301 | 56 | 221 | 0.0 | 0.0 | 0.00 | 0.05 | 0.00 | 1 | 1035.2 |
| 20260906045801 | 56 | 220 | 0.0 | 0.0 | 0.00 | 0.05 | 0.00 | 1 | 1035.2 |
| 20260906045305 | 56 | 221 | 0.0 | 0.0 | 0.00 | 0.05 | 0.00 | 1 | 1035.1 |
| 20260906044800 | 56 | 220 | 0.0 | 2.0 | 0.00 | 0.05 | 0.00 | 1 | 1035.1 |
| 20260906044301 | 56 | 220 | 1.0 | 2.0 | 0.00 | 0.05 | 0.00 | 1 | 1035.1 |
| 20260906043801 | 57 | 276 | 0.0 | 0.0 | 0.00 | 0.05 | 0.00 | 1 | 1035.2 |
| 20260906043300 | 57 | 276 | 0.0 | 0.0 | 0.00 | 0.05 | 0.00 | 1 | 1035.2 |
| 20260906042801 | 57 | 276 | 0.0 | 0.0 | 0.00 | 0.05 | 0.00 | 1 | 1035.1 |
| 20260906042301 | 56 | 276 | 0.0 | 0.0 | 0.00 | 0.05 | 0.00 | 1 | 1035.0 |
| 20260906041801 | 56 | 276 | 0.0 | 0.0 | 0.00 | 0.05 | 0.00 | 1 | 1035.1 |
| 20260906041301 | 57 | 276 | 0.0 | 1.0 | 0.00 | 0.05 | 0.00 | 1 | 1035.1 |
| 20260906040801 | 57 | 282 | 0.0 | 1.0 | 0.00 | 0.05 | 0.00 | 1 | 1035.0 |
| 20260906040301 | 56 | 261 | 0.0 | 1.0 | 0.00 | 0.05 | 0.00 | 1 | 1035.1 |
| 20260906035801 | 56 | 261 | 0.0 | 0.0 | 0.00 | 0.05 | 0.00 | 1 | 1035.1 |
| 20260906035300 | 57 | 259 | 0.0 | 0.0 | 0.00 | 0.05 | 0.00 | 1 | 1035.0 |
| 20260906034801 | 57 | 259 | 0.0 | 0.0 | 0.00 | 0.05 | 0.00 | 1 | 1035.0 |
| 20260906034301 | 57 | 259 | 0.0 | 0.0 | 0.00 | 0.05 | 0.00 | 1 | 1035.0 |
| 20260906033801 | 56 | 259 | 0.0 | 0.0 | 0.00 | 0.05 | 0.00 | 1 | 1034.9 |
| 20260906033302 | 57 | 259 | 0.0 | 0.0 | 0.00 | 0.05 | 0.00 | 1 | 1034.9 |
| 20260906032802 | 56 | 259 | 0.0 | 0.0 | 0.00 | 0.05 | 0.00 | 1 | 1034.9 |
| 20260906032305 | 56 | 259 | 0.0 | 0.0 | 0.00 | 0.05 | 0.00 | 1 | 1034.9 |
| 20260906031802 | 56 | 259 | 0.0 | 0.0 | 0.00 | 0.05 | 0.00 | 1 | 1034.8 |
| 20260906031301 | 56 | 259 | 0.0 | 1.0 | 0.00 | 0.05 | 0.00 | 1 | 1034.9 |
| 20260906030801 | 56 | 259 | 0.0 | 1.0 | 0.00 | 0.05 | 0.00 | 1 | 1034.7 |
| 20260906030301 | 56 | 254 | 0.0 | 1.0 | 0.00 | 0.05 | 0.00 | 1 | 1034.7 |
| 20260906025801 | 56 | 212 | 0.0 | 1.0 | 0.00 | 0.05 | 0.00 | 1 | 1034.8 |
| 20260906025301 | 57 | 14 | 0.0 | 0.0 | 0.00 | 0.05 | 0.00 | 1 | 1034.7 |
| 20260906024800 | 56 | 14 | 0.0 | 1.0 | 0.00 | 0.05 | 0.00 | 1 | 1034.7 |
| 20260906024301 | 57 | 14 | 0.0 | 1.0 | 0.00 | 0.05 | 0.00 | 1 | 1034.7 |
| 20260906023801 | 57 | 151 | 0.0 | 1.0 | 0.00 | 0.05 | 0.00 | 1 | 1034.8 |
| 20260906023301 | 57 | 137 | 0.0 | 1.0 | 0.00 | 0.05 | 0.00 | 1 | 1034.7 |
| 20260906022803 | 57 | 103 | 0.0 | 1.0 | 0.00 | 0.05 | 0.00 | 1 | 1034.7 |
| 20260906022300 | 57 | 96 | 0.0 | 0.0 | 0.00 | 0.05 | 0.00 | 1 | 1034.7 |
| 20260906021802 | 57 | 212 | 0.0 | 0.0 | 0.00 | 0.05 | 0.00 | 1 | 1034.8 |
| 20260906021301 | 58 | 212 | 0.0 | 0.0 | 0.00 | 0.05 | 0.00 | 1 | 1034.8 |
| 20260906020801 | 58 | 212 | 0.0 | 0.0 | 0.00 | 0.05 | 0.00 | 1 | 1034.8 |
| 20260906020301 | 58 | 241 | 0.0 | 0.0 | 0.00 | 0.05 | 0.00 | 1 | 1034.7 |
| 20260906015801 | 58 | 241 | 0.0 | 0.0 | 0.00 | 0.05 | 0.00 | 1 | 1034.8 |
| 20260906015305 | 58 | 241 | 0.0 | 0.0 | 0.00 | 0.05 | 0.00 | 1 | 1034.9 |
| 20260906014800 | 58 | 241 | 0.0 | 1.0 | 0.00 | 0.05 | 0.00 | 1 | 1034.8 |
| 20260906014301 | 58 | 241 | 0.0 | 1.0 | 0.00 | 0.05 | 0.00 | 1 | 1034.9 |
| 20260906013801 | 58 | 241 | 0.0 | 0.0 | 0.00 | 0.05 | 0.00 | 1 | 1034.8 |
| 20260906013300 | 58 | 241 | 0.0 | 0.0 | 0.00 | 0.05 | 0.00 | 1 | 1034.8 |
| 20260906012801 | 58 | 240 | 0.0 | 0.0 | 0.00 | 0.05 | 0.00 | 1 | 1034.8 |
| 20260906012305 | 58 | 241 | 0.0 | 0.0 | 0.00 | 0.05 | 0.00 | 1 | 1034.7 |
| 20260906011802 | 58 | 240 | 0.0 | 0.0 | 0.00 | 0.05 | 0.00 | 1 | 1034.8 |
| 20260906011303 | 58 | 241 | 0.0 | 0.0 | 0.00 | 0.05 | 0.00 | 1 | 1034.8 |
| 20260906010801 | 58 | 240 | 0.0 | 0.0 | 0.00 | 0.05 | 0.00 | 1 | 1034.8 |
| 20260906010301 | 58 | 241 | 0.0 | 0.0 | 0.00 | 0.05 | 0.00 | 1 | 1034.9 |
| 20260906005802 | 58 | 241 | 0.0 | 0.0 | 0.00 | 0.05 | 0.00 | 1 | 1034.8 |
| 20260906005301 | 58 | 240 | 0.0 | 0.0 | 0.00 | 0.05 | 0.00 | 1 | 1034.7 |
| 20260906004801 | 58 | 240 | 0.0 | 0.0 | 0.00 | 0.05 | 0.00 | 1 | 1034.7 |
| 20260906004300 | 58 | 240 | 0.0 | 0.0 | 0.00 | 0.05 | 0.00 | 1 | 1034.7 |
| 20260906003801 | 58 | 240 | 0.0 | 0.0 | 0.00 | 0.05 | 0.00 | 1 | 1034.7 |
| 20260906003301 | 58 | 241 | 0.0 | 0.0 | 0.00 | 0.05 | 0.00 | 1 | 1034.7 |
| 20260906002800 | 58 | 241 | 0.0 | 0.0 | 0.00 | 0.05 | 0.00 | 1 | 1034.7 |
| 20260906002300 | 58 | 241 | 0.0 | 0.0 | 0.00 | 0.05 | 0.00 | 1 | 1034.7 |
| 20260906001800 | 58 | 241 | 0.0 | 0.0 | 0.00 | 0.05 | 0.00 | 1 | 1034.7 |
| 20260906001301 | 59 | 206 | 0.0 | 0.0 | 0.00 | 0.05 | 0.00 | 1 | 1034.7 |
| 20260906000802 | 59 | 206 | 0.0 | 0.0 | 0.00 | 0.05 | 0.00 | 1 | 1034.7 |
| 20260906000303 | 59 | 206 | 0.0 | 0.0 | 0.00 | 0.05 | 0.00 | 1 | 1034.7 |
| 20260905235803 | 59 | 310 | 0.0 | 0.0 | 0.00 | 0.05 | 0.00 | 1 | 1034.8 |
| 20260905235301 | 59 | 310 | 0.0 | 0.0 | 0.00 | 0.05 | 0.00 | 1 | 1034.8 |
| 20260905234801 | 59 | 310 | 0.0 | 0.0 | 0.00 | 0.05 | 0.00 | 1 | 1034.7 |
| 20260905234301 | 58 | 310 | 0.0 | 0.0 | 0.00 | 0.05 | 0.00 | 1 | 1034.7 |
| 20260905233800 | 58 | 310 | 0.0 | 0.0 | 0.00 | 0.05 | 0.00 | 1 | 1034.7 |
| 20260905233301 | 58 | 310 | 0.0 | 1.0 | 0.00 | 0.05 | 0.00 | 1 | 1034.7 |
| 20260905232801 | 58 | 309 | 0.0 | 1.0 | 0.00 | 0.05 | 0.00 | 1 | 1034.8 |
| 20260905232301 | 58 | 159 | 0.0 | 0.0 | 0.00 | 0.05 | 0.00 | 1 | 1034.7 |
| 20260905231801 | 59 | 204 | 0.0 | 0.0 | 0.00 | 0.05 | 0.00 | 1 | 1034.7 |
| 20260905231300 | 59 | 283 | 0.0 | 0.0 | 0.00 | 0.05 | 0.00 | 1 | 1034.7 |
| 20260905230801 | 59 | 283 | 0.0 | 0.0 | 0.00 | 0.05 | 0.00 | 1 | 1034.7 |
| 20260905230302 | 59 | 283 | 0.0 | 0.0 | 0.00 | 0.05 | 0.00 | 1 | 1034.6 |
| 20260905225801 | 58 | 283 | 0.0 | 2.0 | 0.00 | 0.05 | 0.00 | 1 | 1034.7 |
| 20260905225305 | 59 | 283 | 0.0 | 2.0 | 0.00 | 0.05 | 0.00 | 1 | 1034.6 |
| 20260905224801 | 59 | 278 | 0.0 | 0.0 | 0.00 | 0.05 | 0.00 | 1 | 1034.7 |
| 20260905224301 | 59 | 278 | 0.0 | 0.0 | 0.00 | 0.05 | 0.00 | 1 | 1034.4 |
| 20260905223801 | 59 | 278 | 0.0 | 0.0 | 0.00 | 0.05 | 0.00 | 1 | 1034.6 |
| 20260905223301 | 59 | 278 | 0.0 | 0.0 | 0.00 | 0.05 | 0.00 | 1 | 1034.7 |
| 20260905222801 | 59 | 276 | 0.0 | 0.0 | 0.00 | 0.05 | 0.00 | 1 | 1034.7 |
| 20260905222300 | 59 | 306 | 0.0 | 0.0 | 0.00 | 0.05 | 0.00 | 1 | 1034.8 |
| 20260905221801 | 59 | 321 | 0.0 | 1.0 | 0.00 | 0.05 | 0.00 | 1 | 1034.7 |
| 20260905221300 | 59 | 321 | 0.0 | 1.0 | 0.00 | 0.05 | 0.00 | 1 | 1034.7 |
| 20260905220800 | 58 | 321 | 0.0 | 1.0 | 0.00 | 0.05 | 0.00 | 1 | 1034.7 |
| 20260905220300 | 58 | 336 | 0.0 | 1.0 | 0.00 | 0.05 | 0.00 | 1 | 1034.4 |
| 20260905215802 | 58 | 16 | 0.0 | 0.0 | 0.00 | 0.05 | 0.05 | 1 | 1034.4 |
| 20260905215305 | 58 | 16 | 0.0 | 0.0 | 0.00 | 0.05 | 0.05 | 1 | 1034.4 |
| 20260905214803 | 58 | 16 | 0.0 | 1.0 | 0.00 | 0.05 | 0.05 | 1 | 1034.3 |
| 20260905214301 | 58 | 16 | 0.0 | 1.0 | 0.00 | 0.05 | 0.05 | 1 | 1034.3 |
| 20260905213800 | 58 | 243 | 0.0 | 1.0 | 0.00 | 0.05 | 0.05 | 1 | 1034.3 |
| 20260905213300 | 59 | 285 | 0.0 | 0.0 | 0.00 | 0.05 | 0.05 | 1 | 1034.3 |
| 20260905212800 | 59 | 285 | 0.0 | 2.0 | 0.00 | 0.05 | 0.05 | 1 | 1034.3 |
| 20260905212302 | 59 | 285 | 0.0 | 2.0 | 0.00 | 0.05 | 0.05 | 6 | 1034.2 |
| 20260905211800 | 59 | 37 | 0.0 | 0.0 | 0.00 | 0.05 | 0.05 | 1 | 1034.1 |
| 20260905211259 | 59 | 37 | 0.0 | 0.0 | 0.00 | 0.05 | 0.05 | 1 | 1034.2 |
| 20260905210759 | 59 | 89 | 0.0 | 0.0 | 0.00 | 0.05 | 0.05 | 1 | 1034.2 |
| 20260905210301 | 59 | 89 | 0.0 | 2.0 | 0.00 | 0.05 | 0.05 | 5 | 1034.1 |
| 20260905205802 | 60 | 89 | 0.0 | 2.0 | 0.00 | 0.05 | 0.05 | 15 | 1034.1 |
| 20260905205300 | 60 | 125 | 1.0 | 2.0 | 0.00 | 0.05 | 0.05 | 15 | 1034.1 |
| 20260905204800 | 60 | 310 | 0.0 | 3.0 | 0.00 | 0.05 | 0.05 | 18 | 1034.0 |
| 20260905204259 | 60 | 299 | 1.0 | 3.0 | 0.00 | 0.05 | 0.05 | 21 | 1034.0 |
| 20260905203759 | 60 | 299 | 2.0 | 4.0 | 0.00 | 0.05 | 0.05 | 16 | 1034.0 |
| 20260905203259 | 60 | 326 | 0.0 | 4.0 | 0.00 | 0.05 | 0.05 | 16 | 1034.2 |
| 20260905202800 | 60 | 338 | 0.0 | 2.0 | 0.00 | 0.05 | 0.05 | 13 | 1034.1 |
| 20260905202300 | 60 | 293 | 0.0 | 2.0 | 0.00 | 0.05 | 0.05 | 13 | 1034.1 |
| 20260905201800 | 60 | 14 | 0.0 | 4.0 | 0.00 | 0.05 | 0.05 | 17 | 1034.1 |
| 20260905201258 | 60 | 355 | 0.0 | 4.0 | 0.00 | 0.05 | 0.05 | 16 | 1034.1 |
| 20260905200759 | 61 | 276 | 2.0 | 4.0 | 0.00 | 0.05 | 0.05 | 17 | 1034.1 |
| 20260905200258 | 61 | 326 | 2.0 | 4.0 | 0.00 | 0.05 | 0.05 | 19 | 1034.1 |
| 20260905195758 | 61 | 23 | 0.0 | 3.0 | 0.00 | 0.05 | 0.05 | 19 | 1034.0 |
| 20260905195259 | 61 | 296 | 0.0 | 3.0 | 0.00 | 0.05 | 0.05 | 22 | 1034.1 |
| 20260905194759 | 61 | 27 | 0.0 | 1.0 | 0.00 | 0.05 | 0.05 | 19 | 1033.9 |
| 20260905194300 | 61 | 357 | 0.0 | 1.0 | 0.00 | 0.05 | 0.05 | 20 | 1034.0 |
| 20260905193758 | 61 | 283 | 0.0 | 1.0 | 0.00 | 0.05 | 0.05 | 18 | 1033.9 |
| 20260905193259 | 61 | 283 | 0.0 | 1.0 | 0.00 | 0.05 | 0.05 | 19 | 1033.9 |
| 20260905192757 | 62 | 282 | 0.0 | 0.0 | 0.00 | 0.05 | 0.05 | 19 | 1033.9 |
| 20260905192258 | 62 | 282 | 0.0 | 0.0 | 0.00 | 0.05 | 0.05 | 20 | 1033.8 |
| 20260905191757 | 62 | 282 | 0.0 | 0.0 | 0.00 | 0.05 | 0.05 | 22 | 1033.9 |
| 20260905191258 | 62 | 282 | 0.0 | 1.0 | 0.00 | 0.05 | 0.05 | 23 | 1033.8 |
| 20260905190757 | 62 | 282 | 0.0 | 2.0 | 0.00 | 0.05 | 0.05 | 28 | 1033.8 |
| 20260905190258 | 62 | 278 | 1.0 | 2.0 | 0.00 | 0.05 | 0.05 | 33 | 1033.8 |
| 20260905185756 | 62 | 279 | 0.0 | 2.0 | 0.00 | 0.05 | 0.05 | 37 | 1033.7 |
| 20260905185258 | 62 | 309 | 0.0 | 2.0 | 0.00 | 0.05 | 0.05 | 33 | 1033.7 |
| 20260905184757 | 62 | 290 | 0.0 | 3.0 | 0.00 | 0.05 | 0.05 | 32 | 1033.6 |
| 20260905184257 | 62 | 303 | 0.0 | 3.0 | 0.00 | 0.05 | 0.05 | 32 | 1033.5 |
| 20260905183757 | 62 | 305 | 0.0 | 2.0 | 0.00 | 0.05 | 0.05 | 34 | 1033.4 |
| 20260905183256 | 62 | 334 | 0.0 | 2.0 | 0.00 | 0.05 | 0.05 | 29 | 1033.1 |
| 20260905182756 | 62 | 303 | 0.0 | 1.0 | 0.00 | 0.05 | 0.05 | 27 | 1033.1 |
| 20260905182257 | 62 | 303 | 0.0 | 1.0 | 0.00 | 0.05 | 0.05 | 31 | 1033.1 |
| 20260905181758 | 62 | 299 | 0.0 | 1.0 | 0.00 | 0.05 | 0.05 | 35 | 1033.0 |
| 20260905181256 | 62 | 299 | 0.0 | 3.0 | 0.00 | 0.05 | 0.05 | 34 | 1033.1 |
| 20260905180755 | 62 | 279 | 2.0 | 4.0 | 0.00 | 0.05 | 0.05 | 36 | 1033.0 |
| 20260905180257 | 62 | 286 | 2.0 | 4.0 | 0.00 | 0.05 | 0.05 | 40 | 1032.9 |
| 20260905175756 | 63 | 295 | 0.0 | 1.0 | 0.00 | 0.05 | 0.05 | 46 | 1032.9 |
| 20260905175257 | 63 | 312 | 0.0 | 1.0 | 0.00 | 0.05 | 0.05 | 45 | 1032.9 |
| 20260905174757 | 63 | 333 | 0.0 | 1.0 | 0.00 | 0.05 | 0.05 | 43 | 1032.9 |
| 20260905174256 | 63 | 309 | 0.0 | 3.0 | 0.00 | 0.05 | 0.05 | 43 | 1032.8 |
| 20260905173755 | 62 | 289 | 0.0 | 3.0 | 0.00 | 0.05 | 0.05 | 42 | 1032.9 |
| 20260905173255 | 63 | 307 | 0.0 | 2.0 | 0.00 | 0.05 | 0.05 | 48 | 1032.8 |
| 20260905172757 | 63 | 292 | 0.0 | 2.0 | 0.00 | 0.05 | 0.05 | 52 | 1032.8 |
| 20260905172255 | 64 | 10 | 0.0 | 1.0 | 0.00 | 0.05 | 0.05 | 55 | 1032.8 |
| 20260905171755 | 64 | 266 | 0.0 | 0.0 | 0.00 | 0.05 | 0.05 | 53 | 1032.8 |
| 20260905171255 | 64 | 266 | 0.0 | 2.0 | 0.00 | 0.05 | 0.05 | 55 | 1032.8 |
| 20260905170754 | 64 | 266 | 1.0 | 2.0 | 0.00 | 0.05 | 0.05 | 57 | 1032.8 |
| 20260905170254 | 64 | 21 | 0.0 | 3.0 | 0.00 | 0.05 | 0.05 | 57 | 1032.7 |
| 20260905165755 | 64 | 296 | 2.0 | 4.0 | 0.00 | 0.05 | 0.05 | 55 | 1032.8 |
| 20260905165256 | 64 | 312 | 0.0 | 6.0 | 0.00 | 0.05 | 0.05 | 56 | 1032.7 |
| 20260905164756 | 65 | 281 | 2.0 | 6.0 | 0.00 | 0.05 | 0.05 | 61 | 1032.8 |
| 20260905164254 | 65 | 123 | 1.0 | 2.0 | 0.00 | 0.05 | 0.05 | 65 | 1032.7 |
| 20260905163754 | 65 | 241 | 0.0 | 2.0 | 0.00 | 0.05 | 0.05 | 64 | 1032.7 |
| 20260905163254 | 65 | 241 | 0.0 | 4.0 | 0.00 | 0.05 | 0.05 | 66 | 1032.7 |
| 20260905162754 | 66 | 109 | 0.0 | 4.0 | 0.00 | 0.05 | 0.05 | 67 | 1032.6 |
| 20260905162253 | 66 | 16 | 1.0 | 2.0 | 0.00 | 0.05 | 0.05 | 67 | 1032.5 |
| 20260905161754 | 66 | 296 | 0.0 | 2.0 | 0.00 | 0.05 | 0.05 | 67 | 1032.5 |
| 20260905161254 | 66 | 269 | 0.0 | 3.0 | 0.00 | 0.05 | 0.05 | 67 | 1032.5 |
| 20260905160754 | 66 | 320 | 0.0 | 3.0 | 0.00 | 0.05 | 0.05 | 67 | 1032.5 |
| 20260905160252 | 67 | 245 | 0.0 | 6.0 | 0.00 | 0.05 | 0.05 | 67 | 1032.3 |
| 20260905155754 | 67 | 235 | 2.0 | 6.0 | 0.00 | 0.05 | 0.05 | 67 | 1032.4 |
| 20260905155253 | 66 | 228 | 4.0 | 6.0 | 0.00 | 0.05 | 0.05 | 67 | 1032.4 |
| 20260905154753 | 66 | 199 | 0.0 | 7.0 | 0.01 | 0.05 | 0.05 | 67 | 1032.4 |
| 20260905154253 | 66 | 290 | 2.0 | 9.0 | 0.01 | 0.05 | 0.05 | 66 | 1032.4 |
| 20260905153752 | 65 | 295 | 3.0 | 10.0 | 0.01 | 0.05 | 0.05 | 67 | 1032.4 |
| 20260905153253 | 65 | 39 | 5.0 | 10.0 | 0.01 | 0.05 | 0.05 | 66 | 1032.4 |
| 20260905152754 | 65 | 0 | 3.0 | 11.0 | 0.01 | 0.05 | 0.05 | 65 | 1032.5 |
| 20260905152254 | 64 | 30 | 6.0 | 11.0 | 0.01 | 0.05 | 0.05 | 64 | 1032.6 |
| 20260905151752 | 64 | 310 | 3.0 | 10.0 | 0.01 | 0.05 | 0.05 | 56 | 1032.6 |
| 20260905151252 | 63 | 329 | 4.0 | 9.0 | 0.01 | 0.05 | 0.05 | 55 | 1032.7 |
| 20260905150752 | 63 | 314 | 4.0 | 7.0 | 0.01 | 0.05 | 0.05 | 56 | 1032.7 |
| 20260905150252 | 63 | 4 | 3.0 | 7.0 | 0.01 | 0.05 | 0.05 | 52 | 1032.6 |
| 20260905145752 | 63 | 21 | 2.0 | 11.0 | 0.01 | 0.04 | 0.05 | 48 | 1032.6 |
| 20260905145252 | 63 | 307 | 1.0 | 18.0 | 0.01 | 0.04 | 0.05 | 51 | 1032.6 |
| 20260905144753 | 64 | 288 | 8.0 | 20.0 | 0.00 | 0.04 | 0.04 | 59 | 1032.3 |
| 20260905144252 | 65 | 283 | 15.0 | 22.0 | 0.00 | 0.04 | 0.04 | 62 | 1032.2 |
| 20260905143751 | 65 | 293 | 11.0 | 22.0 | 0.00 | 0.04 | 0.04 | 65 | 1032.0 |
| 20260905143251 | 66 | 286 | 4.0 | 9.0 | 0.00 | 0.04 | 0.04 | 63 | 1032.0 |
| 20260905142751 | 65 | 327 | 3.0 | 10.0 | 0.00 | 0.04 | 0.04 | 60 | 1031.7 |
| 20260905142252 | 65 | 261 | 4.0 | 18.0 | 0.00 | 0.04 | 0.04 | 59 | 1031.9 |
| 20260905141751 | 66 | 288 | 7.0 | 18.0 | 0.00 | 0.04 | 0.04 | 61 | 1031.9 |
| 20260905141251 | 67 | 272 | 12.0 | 17.0 | 0.00 | 0.04 | 0.04 | 67 | 1031.6 |
| 20260905140751 | 68 | 233 | 13.0 | 20.0 | 0.00 | 0.04 | 0.04 | 67 | 1031.5 |
| 20260905140250 | 68 | 288 | 9.0 | 20.0 | 0.00 | 0.04 | 0.04 | 66 | 1031.3 |
| 20260905135750 | 69 | 266 | 11.0 | 20.0 | 0.00 | 0.04 | 0.04 | 66 | 1031.0 |
| 20260905135252 | 69 | 282 | 12.0 | 21.0 | 0.00 | 0.04 | 0.04 | 66 | 1031.0 |
| 20260905134750 | 70 | 279 | 7.0 | 21.0 | 0.00 | 0.04 | 0.04 | 65 | 1030.9 |
| 20260905134251 | 71 | 300 | 9.0 | 18.0 | 0.00 | 0.04 | 0.04 | 64 | 1030.8 |
| 20260905133750 | 71 | 268 | 9.0 | 19.0 | 0.00 | 0.04 | 0.04 | 63 | 1030.7 |
| 20260905133250 | 72 | 254 | 11.0 | 19.0 | 0.00 | 0.04 | 0.04 | 63 | 1030.7 |
| 20260905132750 | 72 | 261 | 7.0 | 12.0 | 0.00 | 0.04 | 0.04 | 61 | 1030.6 |
| 20260905132250 | 72 | 292 | 8.0 | 15.0 | 0.00 | 0.04 | 0.04 | 62 | 1030.3 |
| 20260905131751 | 72 | 292 | 6.0 | 15.0 | 0.00 | 0.04 | 0.04 | 61 | 1030.4 |
| 20260905131250 | 73 | 290 | 9.0 | 18.0 | 0.00 | 0.04 | 0.04 | 59 | 1030.3 |
| 20260905130750 | 73 | 286 | 7.0 | 18.0 | 0.00 | 0.04 | 0.04 | 58 | 1030.3 |
| 20260905130251 | 73 | 285 | 11.0 | 17.0 | 0.00 | 0.04 | 0.04 | 58 | 1030.2 |
| 20260905125750 | 74 | 281 | 14.0 | 17.0 | 0.00 | 0.04 | 0.04 | 58 | 1030.2 |
| 20260905125250 | 74 | 276 | 9.0 | 20.0 | 0.00 | 0.04 | 0.04 | 57 | 1030.1 |
| 20260905124749 | 74 | 274 | 12.0 | 22.0 | 0.00 | 0.04 | 0.04 | 55 | 1030.0 |
| 20260905124249 | 75 | 275 | 15.0 | 22.0 | 0.00 | 0.04 | 0.04 | 56 | 1030.2 |
| 20260905123749 | 75 | 247 | 13.0 | 18.0 | 0.00 | 0.04 | 0.04 | 54 | 1030.2 |
| 20260905123248 | 75 | 282 | 13.0 | 18.0 | 0.00 | 0.04 | 0.04 | 53 | 1030.2 |
| 20260905122750 | 75 | 272 | 10.0 | 17.0 | 0.00 | 0.04 | 0.04 | 55 | 1030.1 |
| 20260905122250 | 75 | 281 | 13.0 | 17.0 | 0.00 | 0.04 | 0.04 | 52 | 1030.0 |
| 20260905121748 | 74 | 279 | 11.0 | 16.0 | 0.00 | 0.04 | 0.04 | 55 | 1030.2 |
| 20260905121251 | 74 | 255 | 9.0 | 15.0 | 0.00 | 0.04 | 0.04 | 53 | 1030.2 |
| 20260905120749 | 74 | 262 | 10.0 | 17.0 | 0.00 | 0.04 | 0.04 | 54 | 1030.2 |
| 20260905120248 | 74 | 278 | 10.0 | 17.0 | 0.00 | 0.04 | 0.04 | 55 | 1030.2 |
| 20260905115748 | 75 | 259 | 9.0 | 14.0 | 0.00 | 0.04 | 0.04 | 56 | 1030.2 |
| 20260905115249 | 75 | 288 | 6.0 | 14.0 | 0.00 | 0.04 | 0.04 | 54 | 1030.4 |
| 20260905114749 | 75 | 271 | 9.0 | 14.0 | 0.00 | 0.04 | 0.04 | 52 | 1030.4 |
| 20260905114248 | 75 | 271 | 2.0 | 10.0 | 0.00 | 0.04 | 0.04 | 55 | 1030.6 |
| 20260905113750 | 75 | 195 | 2.0 | 14.0 | 0.00 | 0.04 | 0.04 | 58 | 1030.4 |
| 20260905113247 | 74 | 290 | 4.0 | 14.0 | 0.00 | 0.04 | 0.04 | 59 | 1030.6 |
| 20260905112748 | 74 | 329 | 2.0 | 10.0 | 0.00 | 0.04 | 0.04 | 58 | 1030.4 |
| 20260905112247 | 73 | 47 | 3.0 | 9.0 | 0.00 | 0.04 | 0.04 | 64 | 1030.6 |
| 20260905111748 | 72 | 133 | 2.0 | 9.0 | 0.00 | 0.04 | 0.04 | 66 | 1030.7 |
| 20260905111247 | 71 | 100 | 5.0 | 7.0 | 0.00 | 0.04 | 0.04 | 66 | 1030.7 |
| 20260905110747 | 70 | 90 | 5.0 | 7.0 | 0.00 | 0.04 | 0.04 | 67 | 1030.9 |
| 20260905110247 | 69 | 130 | 2.0 | 5.0 | 0.00 | 0.04 | 0.04 | 66 | 1030.9 |
| 20260905105746 | 69 | 123 | 4.0 | 5.0 | 0.00 | 0.04 | 0.04 | 65 | 1030.9 |
| 20260905105249 | 68 | 103 | 3.0 | 7.0 | 0.00 | 0.04 | 0.04 | 64 | 1030.9 |
| 20260905104749 | 68 | 103 | 3.0 | 10.0 | 0.00 | 0.04 | 0.04 | 64 | 1031.0 |
| 20260905104249 | 68 | 120 | 5.0 | 10.0 | 0.00 | 0.04 | 0.04 | 63 | 1031.0 |
| 20260905103746 | 68 | 116 | 4.0 | 7.0 | 0.00 | 0.04 | 0.04 | 60 | 1031.0 |
| 20260905103246 | 67 | 120 | 3.0 | 7.0 | 0.00 | 0.04 | 0.04 | 60 | 1030.9 |
| 20260905102746 | 67 | 116 | 5.0 | 9.0 | 0.00 | 0.04 | 0.04 | 59 | 1031.0 |
| 20260905102246 | 67 | 134 | 4.0 | 9.0 | 0.00 | 0.04 | 0.04 | 62 | 1031.1 |
| 20260905101748 | 66 | 107 | 3.0 | 9.0 | 0.00 | 0.04 | 0.04 | 63 | 1031.1 |
| 20260905101247 | 66 | 76 | 4.0 | 9.0 | 0.00 | 0.04 | 0.04 | 61 | 1031.2 |
| 20260905100746 | 66 | 127 | 6.0 | 10.0 | 0.00 | 0.04 | 0.04 | 58 | 1031.2 |
| 20260905100246 | 65 | 114 | 6.0 | 10.0 | 0.00 | 0.04 | 0.04 | 61 | 1031.2 |
| 20260905095746 | 65 | 107 | 4.0 | 6.0 | 0.00 | 0.04 | 0.04 | 44 | 1031.3 |
| 20260905095246 | 65 | 120 | 5.0 | 6.0 | 0.00 | 0.04 | 0.04 | 49 | 1031.4 |
| 20260905094746 | 65 | 106 | 3.0 | 6.0 | 0.00 | 0.04 | 0.04 | 48 | 1031.5 |
| 20260905094247 | 64 | 137 | 4.0 | 5.0 | 0.00 | 0.04 | 0.04 | 42 | 1031.4 |
| 20260905093745 | 64 | 97 | 1.0 | 3.0 | 0.00 | 0.04 | 0.04 | 42 | 1031.5 |
| 20260905093244 | 64 | 118 | 2.0 | 3.0 | 0.00 | 0.04 | 0.04 | 38 | 1031.6 |
| 20260905092745 | 64 | 180 | 1.0 | 3.0 | 0.00 | 0.04 | 0.04 | 47 | 1031.5 |
| 20260905092246 | 64 | 107 | 0.0 | 3.0 | 0.00 | 0.04 | 0.04 | 48 | 1031.6 |
| 20260905091744 | 64 | 97 | 0.0 | 3.0 | 0.00 | 0.04 | 0.04 | 40 | 1031.4 |
| 20260905091245 | 63 | 120 | 0.0 | 2.0 | 0.00 | 0.04 | 0.04 | 34 | 1031.3 |
| 20260905090745 | 63 | 82 | 0.0 | 2.0 | 0.00 | 0.04 | 0.04 | 39 | 1031.3 |
| 20260905090245 | 63 | 85 | 0.0 | 2.0 | 0.00 | 0.04 | 0.04 | 40 | 1031.4 |
| 20260905085744 | 63 | 144 | 0.0 | 2.0 | 0.00 | 0.04 | 0.04 | 44 | 1031.3 |
| 20260905085244 | 63 | 209 | 0.0 | 2.0 | 0.00 | 0.04 | 0.04 | 37 | 1031.4 |
| 20260905084745 | 63 | 185 | 1.0 | 4.0 | 0.01 | 0.04 | 0.04 | 39 | 1031.2 |
| 20260905084245 | 62 | 223 | 1.0 | 5.0 | 0.02 | 0.04 | 0.04 | 40 | 1031.3 |
| 20260905083745 | 62 | 161 | 3.0 | 5.0 | 0.04 | 0.04 | 0.04 | 36 | 1031.2 |
| 20260905083244 | 62 | 103 | 0.0 | 3.0 | 0.04 | 0.04 | 0.04 | 32 | 1031.2 |
| 20260905082744 | 62 | 262 | 1.0 | 4.0 | 0.04 | 0.04 | 0.04 | 31 | 1031.1 |
| 20260905082243 | 62 | 226 | 2.0 | 11.0 | 0.04 | 0.04 | 0.04 | 39 | 1031.1 |
| 20260905081743 | 62 | 286 | 4.0 | 13.0 | 0.04 | 0.04 | 0.04 | 52 | 1030.9 |
| 20260905081244 | 62 | 279 | 4.0 | 16.0 | 0.04 | 0.04 | 0.04 | 49 | 1031.0 |
| 20260905080744 | 62 | 331 | 5.0 | 16.0 | 0.04 | 0.04 | 0.04 | 40 | 1031.0 |
| 20260905080245 | 61 | 296 | 7.0 | 11.0 | 0.04 | 0.04 | 0.04 | 43 | 1030.9 |
| 20260905075743 | 61 | 278 | 6.0 | 17.0 | 0.04 | 0.00 | 0.04 | 31 | 1030.9 |
| 20260905075243 | 61 | 286 | 9.0 | 17.0 | 0.04 | 0.00 | 0.04 | 35 | 1030.9 |
| 20260905074743 | 62 | 296 | 11.0 | 18.0 | 0.03 | 0.00 | 0.03 | 45 | 1030.9 |
| 20260905074243 | 63 | 290 | 10.0 | 18.0 | 0.02 | 0.00 | 0.02 | 62 | 1030.4 |
| 20260905073743 | 64 | 274 | 11.0 | 20.0 | 0.00 | 0.00 | 0.00 | 67 | 1030.2 |
| 20260905073242 | 64 | 310 | 9.0 | 20.0 | 0.00 | 0.00 | 0.00 | 67 | 1030.0 |
| 20260905072743 | 64 | 299 | 9.0 | 19.0 | 0.00 | 0.00 | 0.00 | 67 | 1029.8 |
| 20260905072241 | 65 | 306 | 13.0 | 19.0 | 0.00 | 0.00 | 0.00 | 67 | 1029.6 |
| 20260905071743 | 65 | 278 | 7.0 | 15.0 | 0.00 | 0.00 | 0.00 | 67 | 1029.5 |
| 20260905071242 | 66 | 8 | 6.0 | 15.0 | 0.00 | 0.00 | 0.00 | 66 | 1029.4 |
| 20260905070742 | 66 | 333 | 3.0 | 13.0 | 0.00 | 0.00 | 0.00 | 64 | 1029.5 |
| 20260905070242 | 66 | 337 | 4.0 | 13.0 | 0.00 | 0.00 | 0.00 | 62 | 1029.4 |
| 20260905065742 | 65 | 307 | 1.0 | 10.0 | 0.00 | 0.00 | 0.00 | 59 | 1029.2 |
| 20260905065242 | 65 | 305 | 4.0 | 12.0 | 0.00 | 0.00 | 0.00 | 57 | 1029.2 |
| 20260905064743 | 65 | 278 | 8.0 | 12.0 | 0.00 | 0.00 | 0.00 | 54 | 1028.9 |
| 20260905064242 | 65 | 312 | 5.0 | 15.0 | 0.00 | 0.00 | 0.00 | 44 | 1028.9 |
| 20260905063742 | 63 | 292 | 8.0 | 15.0 | 0.00 | 0.00 | 0.00 | 17 | 1029.0 |
| 20260905063242 | 61 | 337 | 0.0 | 5.0 | 0.00 | 0.00 | 0.00 | 1 | 1029.0 |
| 20260905062741 | 60 | 358 | 2.0 | 5.0 | 0.00 | 0.00 | 0.00 | 2 | 1028.9 |
| 20260905062241 | 60 | 142 | 3.0 | 4.0 | 0.00 | 0.00 | 0.00 | 4 | 1028.8 |
| 20260905061741 | 60 | 94 | 0.0 | 1.0 | 0.00 | 0.00 | 0.00 | 1 | 1028.9 |
| 20260905061240 | 60 | 94 | 0.0 | 1.0 | 0.00 | 0.00 | 0.00 | 1 | 1028.9 |
| 20260905060742 | 60 | 93 | 0.0 | 1.0 | 0.00 | 0.00 | 0.00 | 2 | 1028.7 |
| 20260905060242 | 60 | 118 | 0.0 | 1.0 | 0.00 | 0.00 | 0.00 | 9 | 1028.7 |